TimeEST,TemperatureF,Dew PointF,Humidity,Sea Level PressureIn,VisibilityMPH,Wind Direction,Wind SpeedMPH,Gust SpeedMPH,PrecipitationIn,Events,Conditions,WindDirDegrees,DateUTC
12:53 AM,33.1,30.9,92,30.02,8.0,Calm,Calm,-,N/A,,Partly Cloudy,0,2013-02-16 05:53:00
1:53 AM,35.1,33.1,92,30.01,9.0,Calm,Calm,-,N/A,,Overcast,0,2013-02-16 06:53:00
2:53 AM,33.1,30.9,92,30.00,8.0,Calm,Calm,-,N/A,,Overcast,0,2013-02-16 07:53:00
3:53 AM,33.1,30.0,89,30.00,9.0,NNW,5.8,-,0.00,,Mostly Cloudy,340,2013-02-16 08:53:00
4:12 AM,33.8,30.2,87,29.96,8.0,NNW,4.6,-,N/A,,Overcast,330,2013-02-16 09:12:00
4:24 AM,33.8,30.2,87,29.95,8.0,North,4.6,-,N/A,,Overcast,350,2013-02-16 09:24:00
4:33 AM,33.8,30.2,87,29.95,8.0,North,4.6,-,N/A,,Overcast,350,2013-02-16 09:33:00
4:43 AM,33.8,30.2,87,29.95,8.0,Calm,Calm,-,N/A,,Overcast,0,2013-02-16 09:43:00
4:53 AM,33.1,30.0,89,30.00,9.0,Calm,Calm,-,N/A,,Mostly Cloudy,0,2013-02-16 09:53:00
5:53 AM,32.0,28.9,88,30.01,6.0,NNW,6.9,-,0.00,Snow,Light Snow,340,2013-02-16 10:53:00
6:53 AM,32.0,27.0,82,30.01,10.0,North,5.8,-,N/A,,Scattered Clouds,10,2013-02-16 11:53:00
7:53 AM,30.9,27.0,85,30.02,10.0,Calm,Calm,-,N/A,,Clear,0,2013-02-16 12:53:00
8:53 AM,32.0,27.0,82,30.01,10.0,North,5.8,-,N/A,,Clear,350,2013-02-16 13:53:00
9:53 AM,34.0,27.0,75,30.00,10.0,NNW,8.1,-,N/A,,Clear,330,2013-02-16 14:53:00
10:19 AM,33.8,26.6,75,29.95,10.0,North,6.9,-,N/A,,Mostly Cloudy,350,2013-02-16 15:19:00
10:53 AM,34.0,26.1,73,30.00,10.0,North,6.9,-,N/A,,Overcast,350,2013-02-16 15:53:00
11:06 AM,35.6,26.6,70,29.95,10.0,NNW,9.2,-,N/A,,Mostly Cloudy,340,2013-02-16 16:06:00
11:53 AM,35.1,23.0,61,29.99,10.0,NNW,8.1,-,N/A,,Mostly Cloudy,340,2013-02-16 16:53:00
12:53 PM,35.1,23.0,61,29.94,10.0,NNW,10.4,-,N/A,,Overcast,330,2013-02-16 17:53:00
1:53 PM,34.0,21.0,59,29.94,10.0,NNW,10.4,-,N/A,,Overcast,330,2013-02-16 18:53:00
2:53 PM,34.0,18.0,52,29.92,10.0,WNW,12.7,-,N/A,,Scattered Clouds,300,2013-02-16 19:53:00
3:53 PM,34.0,16.0,48,29.93,10.0,NW,11.5,-,N/A,,Partly Cloudy,310,2013-02-16 20:53:00
4:53 PM,33.1,15.1,48,29.94,10.0,NW,11.5,-,N/A,,Overcast,320,2013-02-16 21:53:00
5:53 PM,32.0,16.0,52,29.94,10.0,NW,9.2,-,N/A,,Mostly Cloudy,320,2013-02-16 22:53:00
6:53 PM,30.9,16.0,54,29.94,10.0,NW,10.4,-,N/A,,Clear,310,2013-02-16 23:53:00
7:53 PM,30.0,16.0,56,29.94,10.0,NW,10.4,-,N/A,,Partly Cloudy,310,2013-02-17 00:53:00
8:53 PM,30.0,16.0,56,29.93,10.0,NW,13.8,-,N/A,,Partly Cloudy,310,2013-02-17 01:53:00
9:53 PM,28.9,17.1,61,29.92,10.0,NW,15.0,-,N/A,,Scattered Clouds,310,2013-02-17 02:53:00
10:53 PM,27.0,17.1,66,29.91,10.0,NW,10.4,-,N/A,,Clear,310,2013-02-17 03:53:00
11:53 PM,26.1,17.1,69,29.90,10.0,NW,11.5,-,N/A,,Clear,320,2013-02-17 04:53:00